| time (UTC) | temp F | wind direction | speed MPH | gust MPH | rain 1hr in | rain 24hr in | rain mn in | humidity % | barometer mb |
| 20260507153016 | 52 | 45 | 19.0 | 28.0 | 0.02 | 0.16 | 0.03 | 99 | 1017.2 |
| 20260507152016 | 52 | 67 | 9.0 | 14.0 | 0.03 | 0.16 | 0.03 | 99 | 1019.3 |
| 20260507151018 | 52 | 67 | 7.0 | 17.0 | 0.02 | 0.15 | 0.02 | 99 | 1019.4 |
| 20260507150016 | 51 | 90 | 14.0 | 21.0 | 0.01 | 0.14 | 0.01 | 99 | |
| 20260507145017 | 51 | 45 | 13.0 | 17.0 | 0.01 | 0.14 | 0.01 | 99 | 1019.2 |
| 20260507144016 | 51 | 67 | 13.0 | 23.0 | 0.01 | 0.14 | 0.01 | 99 | 1018.4 |
| 20260507143017 | 52 | 45 | 17.0 | 22.0 | 0.01 | 0.18 | 0.01 | 99 | 1018.2 |
| 20260507142016 | 52 | 45 | 15.0 | 24.0 | 0.00 | 0.22 | 0.00 | 99 | 1018.1 |
| 20260507140017 | 52 | 45 | 17.0 | 24.0 | 0.00 | 0.23 | 0.00 | 99 | 1018.4 |
| 20260507135017 | 52 | 45 | 16.0 | 24.0 | 0.00 | 0.23 | 0.00 | 99 | 1018.1 |
| 20260507134017 | 52 | 45 | 10.0 | 15.0 | 0.00 | 0.23 | 0.00 | 99 | |
| 20260507133016 | 52 | 67 | 13.0 | 18.0 | 0.00 | 0.23 | 0.00 | 99 | |
| 20260507132017 | 52 | 45 | 17.0 | 23.0 | 0.00 | 0.23 | 0.00 | 99 | |
| 20260507131016 | 52 | 45 | 14.0 | 18.0 | 0.00 | 0.23 | 0.00 | 99 | 1018.4 |
| 20260507130016 | 53 | 45 | 15.0 | 22.0 | 0.00 | 0.23 | 0.00 | 99 | 1018.3 |
| 20260507125016 | 53 | 45 | 13.0 | 20.0 | 0.00 | 0.23 | 0.00 | 99 | 1018.3 |
| 20260507124016 | 53 | 45 | 14.0 | 21.0 | 0.00 | 0.23 | 0.00 | 99 | 1018.0 |
| 20260507123117 | 53 | 45 | 13.0 | 19.0 | 0.00 | 0.23 | 0.00 | 99 | 1017.4 |
| 20260507122017 | 53 | 45 | 13.0 | 17.0 | 0.00 | 0.23 | 0.00 | 99 | 1017.4 |
| 20260507121016 | 53 | 45 | 14.0 | 19.0 | 0.00 | 0.23 | 0.00 | 98 | 1017.5 |
| 20260507120016 | 53 | 45 | 15.0 | 22.0 | 0.00 | 0.23 | 0.00 | 98 | 1017.5 |
| 20260507115016 | 53 | 45 | 17.0 | 25.0 | 0.00 | 0.23 | 0.00 | 98 | 1017.2 |
| 20260507114016 | 53 | 45 | 14.0 | 21.0 | 0.00 | 0.23 | 0.00 | 98 | |
| 20260507113037 | 53 | 45 | 13.0 | 22.0 | 0.00 | 0.23 | 0.00 | 98 | |
| 20260507112017 | 53 | 45 | 15.0 | 22.0 | 0.00 | 0.23 | 0.00 | 98 | 1017.1 |
| 20260507111016 | 53 | 45 | 15.0 | 22.0 | 0.00 | 0.23 | 0.00 | 98 | 1016.7 |
| 20260507110117 | 54 | 45 | 15.0 | 19.0 | 0.00 | 0.23 | 0.00 | 98 | 1016.9 |
| 20260507104017 | 54 | 45 | 13.0 | 17.0 | 0.00 | 0.23 | 0.00 | 98 | 1016.5 |
| 20260507103017 | 54 | 45 | 12.0 | 17.0 | 0.00 | 0.23 | 0.00 | 98 | 1016.7 |
| 20260507102017 | 54 | 45 | 12.0 | 16.0 | 0.00 | 0.23 | 0.00 | 98 | 1016.4 |
| 20260507101016 | 54 | 45 | 13.0 | 20.0 | 0.00 | 0.23 | 0.00 | 98 | 1016.5 |
| 20260507095117 | 55 | 45 | 12.0 | 17.0 | 0.00 | 0.23 | 0.00 | 98 | |
| 20260507094017 | 55 | 45 | 11.0 | 16.0 | 0.00 | 0.23 | 0.00 | 98 | 1016.2 |
| 20260507093016 | 55 | 45 | 10.0 | 13.0 | 0.00 | 0.23 | 0.00 | 98 | 1016.0 |
| 20260507092017 | 55 | 45 | 11.0 | 16.0 | 0.00 | 0.23 | 0.00 | 98 | 1016.1 |
| 20260507091017 | 55 | 45 | 9.0 | 12.0 | 0.00 | 0.23 | 0.00 | 98 | 1016.3 |
| 20260507085017 | 55 | 45 | 5.0 | 10.0 | 0.00 | 0.23 | 0.00 | 98 | 1016.4 |
| 20260507084016 | 55 | 67 | 9.0 | 12.0 | 0.00 | 0.23 | 0.00 | 98 | 1015.6 |
| 20260507083022 | 55 | 45 | 8.0 | 13.0 | 0.00 | 0.23 | 0.00 | 98 | 1015.8 |
| 20260507082017 | 55 | 45 | 7.0 | 10.0 | 0.00 | 0.23 | 0.00 | 98 | 1015.9 |
| 20260507081022 | 55 | 22 | 4.0 | 7.0 | 0.00 | 0.23 | 0.00 | 98 | 1016.2 |
| 20260507080017 | 55 | 22 | 4.0 | 7.0 | 0.00 | 0.23 | 0.00 | 98 | 1015.8 |
| 20260507075017 | 55 | 45 | 4.0 | 6.0 | 0.00 | 0.23 | 0.00 | 98 | 1015.9 |
| 20260507074016 | 55 | 45 | 6.0 | 9.0 | 0.00 | 0.23 | 0.00 | 98 | 1015.9 |
| 20260507073017 | 55 | 22 | 4.0 | 6.0 | 0.00 | 0.23 | 0.00 | 98 | 1016.2 |
| 20260507072017 | 55 | 67 | 3.0 | 5.0 | 0.00 | 0.23 | 0.00 | 98 | 1016.2 |
| 20260507070017 | 55 | 67 | 6.0 | 9.0 | 0.00 | 0.23 | 0.00 | 98 | 1015.8 |
| 20260507065017 | 55 | 45 | 7.0 | 11.0 | 0.00 | 0.23 | 0.00 | 98 | 1015.3 |
| 20260507064017 | 56 | 67 | 5.0 | 7.0 | 0.00 | 0.23 | 0.00 | 98 | 1015.6 |
| 20260507063017 | 56 | 90 | 3.0 | 5.0 | 0.00 | 0.23 | 0.00 | 98 | 1015.7 |
| 20260507062117 | 56 | 135 | 1.0 | 3.0 | 0.00 | 0.23 | 0.00 | 98 | 1015.7 |
| 20260507061117 | 56 | 112 | 4.0 | 10.0 | 0.00 | 0.23 | 0.00 | 98 | 1015.5 |
| 20260507060017 | 56 | 90 | 7.0 | 11.0 | 0.00 | 0.23 | 0.00 | 98 | 1014.9 |
| 20260507055017 | 56 | 67 | 11.0 | 16.0 | 0.00 | 0.23 | 0.00 | 99 | 1014.4 |
| 20260507054017 | 56 | 90 | 6.0 | 10.0 | 0.00 | 0.23 | 0.00 | 99 | 1014.8 |
| 20260507053017 | 56 | 67 | 10.0 | 14.0 | 0.00 | 0.23 | 0.00 | 99 | 1014.9 |
| 20260507052017 | 56 | 67 | 11.0 | 15.0 | 0.00 | 0.23 | 0.00 | 99 | 1015.1 |
| 20260507051017 | 57 | 67 | 11.0 | 15.0 | 0.00 | 0.23 | 0.00 | 99 | 1015.4 |
| 20260507050017 | 57 | 67 | 9.0 | 13.0 | 0.00 | 0.23 | 0.00 | 99 | 1015.4 |
| 20260507045016 | 57 | 67 | 10.0 | 14.0 | 0.00 | 0.23 | 0.23 | 99 | 1015.5 |
| 20260507044016 | 57 | 67 | 11.0 | 14.0 | 0.00 | 0.23 | 0.23 | 99 | 1015.6 |
| 20260507043016 | 57 | 67 | 12.0 | 19.0 | 0.00 | 0.23 | 0.23 | 99 | 1015.6 |
| 20260507041017 | 57 | 67 | 10.0 | 14.0 | 0.00 | 0.23 | 0.23 | 99 | 1015.8 |
| 20260507040016 | 57 | 67 | 11.0 | 17.0 | 0.00 | 0.23 | 0.23 | 99 | 1015.7 |
| 20260507035016 | 57 | 67 | 10.0 | 14.0 | 0.00 | 0.23 | 0.23 | 99 | 1015.5 |
| 20260507034017 | 57 | 67 | 12.0 | 18.0 | 0.00 | 0.23 | 0.23 | 98 | 1015.4 |
| 20260507033016 | 57 | 67 | 11.0 | 15.0 | 0.00 | 0.23 | 0.23 | 98 | 1015.3 |
| 20260507032017 | 57 | 67 | 10.0 | 15.0 | 0.00 | 0.23 | 0.23 | 98 | 1015.3 |
| 20260507031016 | 57 | 67 | 12.0 | 16.0 | 0.00 | 0.23 | 0.23 | 98 | 1015.0 |
| 20260507030017 | 0 | 67 | 9.0 | 15.0 | 0.00 | 0.23 | 0.23 | ||
| 20260507025017 | 0 | 67 | 10.0 | 16.0 | 0.00 | 0.23 | 0.23 | ||
| 20260507024015 | 57 | 45 | 10.0 | 14.0 | 0.00 | 0.23 | 0.23 | 98 | 1014.3 |
| 20260507023017 | 57 | 45 | 11.0 | 16.0 | 0.00 | 0.23 | 0.23 | 97 | 1014.1 |
| 20260507022016 | 57 | 67 | 11.0 | 15.0 | 0.00 | 0.23 | 0.23 | 97 | 1014.3 |
| 20260507021017 | 57 | 45 | 12.0 | 17.0 | 0.00 | 0.23 | 0.23 | 97 | 1014.2 |
| 20260507020016 | 57 | 45 | 12.0 | 17.0 | 0.00 | 0.23 | 0.23 | 97 | 1014.3 |
| 20260507015016 | 57 | 67 | 9.0 | 13.0 | 0.00 | 0.23 | 0.23 | 97 | 1014.5 |
| 20260507014016 | 57 | 45 | 9.0 | 14.0 | 0.00 | 0.23 | 0.23 | 97 | 1014.3 |
| 20260507013016 | 0 | 45 | 9.0 | 13.0 | 0.00 | 0.23 | 0.23 | ||
| 20260507012016 | 0 | 22 | 11.0 | 16.0 | 0.00 | 0.23 | 0.23 | ||
| 20260507011017 | 58 | 45 | 9.0 | 12.0 | 0.00 | 0.23 | 0.23 | 96 | 1013.7 |
| 20260507010016 | 58 | 22 | 8.0 | 12.0 | 0.00 | 0.23 | 0.23 | 96 | 1013.6 |
| 20260507005017 | 58 | 45 | 7.0 | 12.0 | 0.00 | 0.23 | 0.23 | 96 | 1013.6 |
| 20260507004017 | 58 | 22 | 7.0 | 11.0 | 0.00 | 0.23 | 0.23 | 96 | 1013.4 |
| 20260507003017 | 58 | 45 | 8.0 | 12.0 | 0.00 | 0.23 | 0.23 | 95 | 1013.3 |
| 20260507002022 | 59 | 45 | 7.0 | 12.0 | 0.00 | 0.23 | 0.23 | 96 | 1013.1 |
| 20260507001117 | 59 | 45 | 6.0 | 9.0 | 0.00 | 0.23 | 0.23 | 96 | 1013.2 |
| 20260507000017 | 59 | 45 | 7.0 | 10.0 | 0.00 | 0.23 | 0.23 | 95 | 1013.0 |
| 20260506235017 | 59 | 22 | 7.0 | 12.0 | 0.00 | 0.23 | 0.23 | 95 | 1013.0 |
| 20260506234017 | 59 | 45 | 10.0 | 14.0 | 0.00 | 0.23 | 0.23 | 95 | 1012.9 |
| 20260506233017 | 0 | 45 | 10.0 | 13.0 | 0.00 | 0.23 | 0.23 | ||
| 20260506232017 | 59 | 45 | 9.0 | 13.0 | 0.00 | 0.23 | 0.23 | 95 | 1012.8 |
| 20260506231017 | 59 | 45 | 9.0 | 13.0 | 0.00 | 0.23 | 0.23 | 95 | 1012.7 |
| 20260506230119 | 59 | 45 | 9.0 | 14.0 | 0.00 | 0.23 | 0.23 | 95 | 1012.8 |
| 20260506224017 | 59 | 22 | 9.0 | 14.0 | 0.00 | 0.23 | 0.23 | 96 | 1012.7 |
| 20260506223017 | 59 | 22 | 11.0 | 15.0 | 0.00 | 0.23 | 0.23 | 95 | 1012.6 |
| 20260506221017 | 59 | 0 | 8.0 | 13.0 | 0.00 | 0.23 | 0.23 | 95 | 1012.6 |
| 20260506220018 | 60 | 22 | 7.0 | 11.0 | 0.00 | 0.23 | 0.23 | 95 | 1012.5 |
| 20260506215017 | 59 | 0 | 8.0 | 13.0 | 0.00 | 0.23 | 0.23 | 96 | 1012.6 |
| 20260506214017 | 0 | 22 | 9.0 | 14.0 | 0.00 | 0.23 | 0.23 | ||
| 20260506213016 | 59 | 0 | 10.0 | 13.0 | 0.00 | 0.23 | 0.23 | 96 | 1012.3 |
| 20260506212017 | 58 | 0 | 11.0 | 15.0 | 0.00 | 0.23 | 0.23 | 96 | 1012.2 |
| 20260506211017 | 58 | 0 | 11.0 | 14.0 | 0.00 | 0.23 | 0.23 | 96 | 1012.7 |
| 20260506210017 | 59 | 0 | 12.0 | 15.0 | 0.00 | 0.23 | 0.23 | 95 | 1012.4 |
| 20260506205017 | 60 | 22 | 10.0 | 14.0 | 0.00 | 0.23 | 0.23 | 96 | 1012.7 |
| 20260506204017 | 60 | 0 | 10.0 | 14.0 | 0.00 | 0.23 | 0.23 | 96 | 1012.9 |
| 20260506203017 | 60 | 22 | 9.0 | 13.0 | 0.00 | 0.23 | 0.23 | 97 | 1012.7 |
| 20260506202017 | 60 | 0 | 12.0 | 16.0 | 0.00 | 0.23 | 0.23 | 97 | 1012.7 |
| 20260506201017 | 60 | 0 | 10.0 | 14.0 | 0.00 | 0.23 | 0.23 | 98 | 1012.8 |
| 20260506200017 | 60 | 0 | 9.0 | 13.0 | 0.00 | 0.23 | 0.23 | 98 | 1012.9 |
| 20260506195017 | 59 | 0 | 10.0 | 13.0 | 0.00 | 0.23 | 0.23 | 99 | 1012.7 |
| 20260506194017 | 59 | 0 | 8.0 | 12.0 | 0.00 | 0.23 | 0.23 | 99 | 1012.8 |
| 20260506193017 | 59 | 0 | 11.0 | 14.0 | 0.00 | 0.23 | 0.23 | 99 | 1012.5 |
| 20260506192017 | 59 | 0 | 10.0 | 14.0 | 0.00 | 0.23 | 0.23 | 99 | 1012.7 |
| 20260506191017 | 59 | 0 | 9.0 | 14.0 | 0.03 | 0.23 | 0.23 | 99 | 1013.0 |
| 20260506190018 | 59 | 337 | 9.0 | 12.0 | 0.03 | 0.23 | 0.23 | 99 | 1012.9 |
| 20260506185017 | 58 | 337 | 11.0 | 14.0 | 0.03 | 0.23 | 0.23 | 99 | 1012.8 |
| 20260506184017 | 58 | 0 | 11.0 | 15.0 | 0.03 | 0.23 | 0.23 | 99 | 1013.1 |
| 20260506183017 | 58 | 337 | 12.0 | 17.0 | 0.03 | 0.23 | 0.23 | 98 | 1012.9 |
| 20260506182018 | 59 | 0 | 11.0 | 15.0 | 0.03 | 0.23 | 0.23 | 99 | 1012.8 |
| 20260506181017 | 59 | 337 | 9.0 | 14.0 | 0.00 | 0.20 | 0.20 | 98 | 1013.1 |
| 20260506180015 | 59 | 0 | 10.0 | 15.0 | 0.00 | 0.20 | 0.20 | 98 | 1012.6 |
| 20260506175015 | 60 | 337 | 12.0 | 18.0 | 0.10 | 0.20 | 0.20 | 98 | 1012.9 |
| 20260506174015 | 61 | 0 | 9.0 | 13.0 | 0.10 | 0.20 | 0.20 | 98 | 1012.8 |
| 20260506173015 | 61 | 337 | 10.0 | 13.0 | 0.10 | 0.20 | 0.20 | 97 | 1012.8 |
| 20260506172015 | 62 | 337 | 12.0 | 15.0 | 0.10 | 0.20 | 0.20 | 97 | 1013.2 |
| 20260506171015 | 63 | 0 | 11.0 | 16.0 | 0.10 | 0.20 | 0.20 | 97 | 1013.1 |
| 20260506170015 | 64 | 0 | 8.0 | 13.0 | 0.10 | 0.20 | 0.20 | 96 | 1013.0 |
| 20260506165015 | 65 | 0 | 9.0 | 13.0 | 0.00 | 0.10 | 0.10 | 96 | 1013.0 |
| 20260506164015 | 65 | 45 | 8.0 | 12.0 | 0.00 | 0.10 | 0.10 | 97 | 1012.7 |
| 20260506163015 | 65 | 45 | 6.0 | 10.0 | 0.00 | 0.10 | 0.10 | 97 | 1012.8 |
| 20260506162015 | 65 | 45 | 9.0 | 13.0 | 0.00 | 0.10 | 0.10 | 98 | 1012.6 |
| 20260506161015 | 65 | 67 | 9.0 | 13.0 | 0.00 | 0.10 | 0.10 | 98 | 1012.4 |
| 20260506160020 | 65 | 67 | 8.0 | 13.0 | 0.00 | 0.10 | 0.10 | 98 | 1012.2 |
| 20260506155015 | 64 | 67 | 10.0 | 15.0 | 0.00 | 0.10 | 0.10 | 98 | 1012.2 |
| 20260506154015 | 64 | 67 | 10.0 | 16.0 | 0.00 | 0.10 | 0.10 | 98 | 1012.0 |